Weather History for KMCK - September, 2014

Change the Weather History Date:

Wednesday, September 3, 2014

  Actual Average Record
Temperature  
Mean Temperature 83 °F 70 °F  
Max Temperature 97 °F 85 °F 103 °F (1998)
Min Temperature 68 °F 55 °F 35 °F (1974)
Cooling Degree Days 17    
Growing Degree Days 32 (Base 50)    
Moisture  
Dew Point 67 °F    
Average Humidity 74    
Maximum Humidity 96    
Minimum Humidity 35    
Precipitation  
Precipitation 0.00 in 0.05 in 0.70 in (1951)
Month to date precipitation T 0.16  
Year to date precipitation 20.95 17.87  
Sea Level Pressure  
Sea Level Pressure 29.73 in    
Wind  
Wind Speed 9 mph (South)    
Max Wind Speed 16 mph    
Max Gust Speed 24 mph    
Visibility 8 miles    
Events Thunderstorm    
T = Trace of Precipitation, MM = Missing Value Source: NWS Daily Summary

Daily Weather History Graph

Daily Weather History Graph

Search for Another Location

Airport or City:

Trip Planner

Search our weather history database for the weather conditions in past years. The results will help you decide how hot, cold, wet, or windy it might be!

Date:

Astronomy

Sep. 03, 2014 Rise Set
Actual Time 7:11 AM CDT 8:10 PM CDT
Civil Twilight 6:44 AM CDT 8:38 PM CDT
Nautical Twilight 6:11 AM CDT 9:11 PM CDT
Astronomical Twilight 5:36 AM CDT 9:45 PM CDT
Moon 3:54 PM CDT (9/3) 1:07 AM CDT (9/3)
Length of Visible Light 13h 54m
Length of Day
12h 58m
Waxing Gibbous, 64% of the Moon is Illuminated
Sep 3
Waxing Gibbous
Sep 8
Full
Sep 15
Last Quarter
Sep 24
New
Oct 1
First Quarter

Hourly Weather History & Observations

Time (CDT) Temp. Heat Index Dew Point Humidity Pressure Visibility Wind Dir Wind Speed Gust Speed Precip Events Conditions
12:53 AM 70.0 °F - 64.9 °F 84% 29.83 in 10.0 mi South 9.2 mph - N/A   Clear
1:53 AM 69.1 °F - 66.0 °F 90% 29.82 in 9.0 mi South 9.2 mph - N/A   Clear
2:53 AM 69.1 °F - 66.0 °F 90% 29.79 in 7.0 mi South 11.5 mph - N/A   Clear
3:53 AM 68.0 °F - 66.0 °F 93% 29.79 in 6.0 mi SSE 8.1 mph - N/A   Clear
4:22 AM 68.0 °F - 66.0 °F 93% 29.86 in 6.0 mi SE 8.1 mph - N/A   Partly Cloudy
4:37 AM 68.0 °F - 66.0 °F 93% 29.85 in 6.0 mi SSE 6.9 mph - N/A   Mostly Cloudy
4:53 AM 68.0 °F - 66.9 °F 96% 29.77 in 6.0 mi SSE 9.2 mph - N/A   Overcast
5:31 AM 69.1 °F - 68.0 °F 96% 29.85 in 4.0 mi South 6.9 mph - N/A   Overcast
5:53 AM 70.0 °F - 68.0 °F 93% 29.75 in 5.0 mi South 10.4 mph 17.3 mph N/A   Overcast
6:09 AM 71.1 °F - 68.0 °F 90% 29.83 in 5.0 mi South 11.5 mph 18.4 mph N/A   Overcast
6:53 AM 71.1 °F - 69.1 °F 93% 29.75 in 5.0 mi South 10.4 mph - N/A   Overcast
7:53 AM 71.1 °F - 69.1 °F 93% 29.75 in 4.0 mi SW 8.1 mph - N/A   Overcast
8:14 AM 72.0 °F - 69.1 °F 91% 29.82 in 4.0 mi SSW 10.4 mph - N/A Thunderstorm Overcast
8:27 AM 72.0 °F - 69.1 °F 91% 29.78 in 4.0 mi SE 15.0 mph 21.9 mph N/A Thunderstorm Overcast
8:41 AM 72.0 °F - 68.0 °F 87% 29.81 in 5.0 mi West 6.9 mph - N/A   Mostly Cloudy
8:53 AM 71.1 °F - 69.1 °F 93% 29.74 in 4.0 mi SW 12.7 mph - N/A   Mostly Cloudy
9:03 AM 71.1 °F - 69.1 °F 93% 29.82 in 5.0 mi West 6.9 mph - N/A   Mostly Cloudy
9:53 AM 72.0 °F - 69.1 °F 91% 29.75 in 6.0 mi SW 5.8 mph - N/A   Overcast
10:53 AM 73.9 °F - 68.0 °F 82% 29.74 in 9.0 mi SW 10.4 mph - N/A   Overcast
11:09 AM 75.0 °F - 68.0 °F 79% 29.80 in 10.0 mi SSW 6.9 mph - N/A   Overcast
11:53 AM 77.0 °F - 68.0 °F 74% 29.72 in 10.0 mi SW 9.2 mph - N/A   Overcast
12:23 PM 80.1 °F 82.9 °F 69.1 °F 69% 29.78 in 10.0 mi SSW 5.8 mph - N/A   Scattered Clouds
12:53 PM 82.9 °F 86.5 °F 69.1 °F 63% 29.69 in 10.0 mi South 8.1 mph - N/A   Clear
1:53 PM 86.0 °F 90.1 °F 69.1 °F 57% 29.68 in 10.0 mi SSW 8.1 mph - N/A   Clear
2:53 PM 89.1 °F 92.9 °F 68.0 °F 50% 29.65 in 10.0 mi SE 6.9 mph - N/A   Clear
3:53 PM 93.0 °F 96.4 °F 66.9 °F 42% 29.62 in 10.0 mi SSE 6.9 mph - N/A   Clear
4:53 PM 95.0 °F 97.9 °F 66.0 °F 38% 29.60 in 10.0 mi SSE 8.1 mph - N/A   Clear
5:53 PM 96.1 °F 99.3 °F 66.0 °F 37% 29.59 in 10.0 mi East 4.6 mph - N/A   Clear
6:53 PM 93.9 °F 98.6 °F 68.0 °F 43% 29.58 in 10.0 mi East 5.8 mph - N/A   Clear
7:53 PM 86.0 °F 88.2 °F 66.0 °F 51% 29.58 in 10.0 mi East 6.9 mph - N/A   Clear
8:53 PM 82.0 °F 84.5 °F 66.9 °F 60% 29.60 in 10.0 mi ESE 5.8 mph - N/A   Clear
9:53 PM 87.1 °F 85.7 °F 55.9 °F 35% 29.61 in 10.0 mi SSE 13.8 mph - N/A   Clear
10:53 PM 82.0 °F 82.4 °F 60.1 °F 47% 29.62 in 10.0 mi South 13.8 mph - N/A   Clear
11:53 PM 82.9 °F 82.8 °F 59.0 °F 44% 29.61 in 10.0 mi South 16.1 mph 24.2 mph N/A   Clear